Weather History for Faribault, MN

Change the Weather History Date:

Friday, June 14, 2013

  Actual Average Record
Temperature  
Mean Temperature 66 °F -  
Max Temperature 78 °F 81 °F 99 °F (1987)
Min Temperature 55 °F 56 °F 42 °F (1958)
Cooling Degree Days 2    
Growing Degree Days 16 (Base 50)    
Moisture  
Dew Point 59 °F    
Average Humidity 72    
Maximum Humidity 100    
Minimum Humidity 57    
Precipitation  
Precipitation 0.03 in - - ()
Sea Level Pressure  
Sea Level Pressure 30.01 in    
Wind  
Wind Speed 8 mph (SE)    
Max Wind Speed 21 mph    
Max Gust Speed 26 mph    
Visibility 10 miles    
Events Rain , Thunderstorm    
Averages and records for this station are not official NWS values.
T = Trace of Precipitation, MM = Missing Value Source: NWS Daily Summary

Daily Weather History Graph

Daily Weather History Graph

Search for Another Location

Airport:

Trip Planner

Search our weather history database for the weather conditions in past years. The results will help you decide how hot, cold, wet, or windy it might be!

Date:

Astronomy

Jun. 14, 2013 Rise Set
Actual Time 5:28 AM CDT 8:58 PM CDT
Civil Twilight 4:51 AM CDT 9:35 PM CDT
Nautical Twilight 4:03 AM CDT 10:23 PM CDT
Astronomical Twilight 3:01 AM CDT 11:25 PM CDT
Moon 11:15 AM CDT (6/14) No Moon Set
Length of Visible Light 16h 43m
Length of Day
15h 30m
Waxing Crescent, 30% of the Moon is Illuminated
Jun 14
Waxing Crescent
Jun 16
First Quarter
Jun 23
Full
Jun 29
Last Quarter
Jul 8
New

Hourly Weather History & Observations

Time (CDT) Temp. Dew Point Humidity Pressure Visibility Wind Dir Wind Speed Gust Speed Precip Events Conditions
12:14 AM 60.8 °F 57.2 °F 88% 30.07 in 10.0 mi NE 4.6 mph - N/A   Clear
12:34 AM 60.8 °F 55.4 °F 82% 30.07 in 10.0 mi NE 4.6 mph - N/A   Clear
12:54 AM 60.8 °F 55.4 °F 82% 30.07 in 10.0 mi NE 4.6 mph - N/A   Clear
1:14 AM 60.8 °F 55.4 °F 82% 30.06 in 10.0 mi NE 3.5 mph - N/A   Clear
1:34 AM 60.8 °F 55.4 °F 82% 30.07 in 10.0 mi Calm Calm - N/A   Clear
1:54 AM 57.2 °F 55.4 °F 94% 30.06 in 10.0 mi Calm Calm - N/A   Clear
2:14 AM 62.6 °F 53.6 °F 72% 30.07 in 10.0 mi East 3.5 mph - N/A   Clear
2:34 AM 60.8 °F 53.6 °F 77% 30.08 in 10.0 mi SE 3.5 mph - N/A   Clear
2:54 AM 59.0 °F 53.6 °F 82% 30.09 in 10.0 mi Calm Calm - N/A   Clear
3:14 AM 57.2 °F 53.6 °F 88% 30.08 in 10.0 mi Calm Calm - N/A   Clear
3:34 AM 55.4 °F 53.6 °F 94% 30.08 in 10.0 mi Calm Calm - N/A   Clear
3:54 AM 57.2 °F 53.6 °F 88% 30.08 in 10.0 mi Calm Calm - N/A   Clear
4:14 AM 55.4 °F 53.6 °F 94% 30.08 in 10.0 mi Calm Calm - N/A   Clear
4:34 AM 55.4 °F 55.4 °F 100% 30.09 in 10.0 mi Calm Calm - N/A   Clear
4:54 AM 55.4 °F 53.6 °F 94% 30.09 in 10.0 mi Calm Calm - N/A   Clear
5:14 AM 57.2 °F 53.6 °F 88% 30.07 in 10.0 mi East 3.5 mph - N/A   Clear
5:34 AM 55.4 °F 55.4 °F 100% 30.06 in 10.0 mi ENE 3.5 mph - N/A   Clear
5:54 AM 59.0 °F 53.6 °F 82% 30.04 in 10.0 mi East 6.9 mph - N/A   Clear
6:14 AM 60.8 °F 55.4 °F 82% 30.03 in 10.0 mi ESE 12.7 mph 17.3 mph N/A   Clear
6:34 AM 62.6 °F 55.4 °F 77% 30.03 in 10.0 mi ESE 11.5 mph 17.3 mph N/A   Clear
6:54 AM 62.6 °F 55.4 °F 77% 30.05 in 10.0 mi ESE 13.8 mph - N/A   Clear
7:14 AM 62.6 °F 55.4 °F 77% 30.07 in 10.0 mi ESE 9.2 mph - N/A   Clear
7:34 AM 64.4 °F 57.2 °F 77% 30.07 in 10.0 mi SE 10.4 mph - N/A   Clear
7:54 AM 66.2 °F 57.2 °F 73% 30.08 in 10.0 mi SE 10.4 mph - N/A   Clear
8:14 AM 66.2 °F 57.2 °F 73% 30.07 in 10.0 mi ESE 6.9 mph - N/A   Clear
8:34 AM 66.2 °F 57.2 °F 73% 30.08 in 10.0 mi ESE 10.4 mph - N/A   Scattered Clouds
8:54 AM 66.2 °F 57.2 °F 73% 30.08 in 10.0 mi ESE 11.5 mph - N/A   Scattered Clouds
9:13 AM 69.8 °F 59.0 °F 68% 30.08 in 10.0 mi ESE 12.7 mph - N/A   Scattered Clouds
9:34 AM 69.8 °F 57.2 °F 64% 30.07 in 10.0 mi SE 11.5 mph 17.3 mph N/A   Scattered Clouds
9:54 AM 71.6 °F 59.0 °F 64% 30.06 in 10.0 mi SE 13.8 mph 21.9 mph N/A   Scattered Clouds
10:14 AM 71.6 °F 59.0 °F 64% 30.05 in 10.0 mi SSE 15.0 mph 23.0 mph N/A   Scattered Clouds
10:34 AM 71.6 °F 59.0 °F 64% 30.04 in 10.0 mi SE 15.0 mph 23.0 mph N/A   Clear
10:54 AM 73.4 °F 60.8 °F 65% 30.05 in 10.0 mi SE 15.0 mph 19.6 mph N/A   Clear
11:14 AM 73.4 °F 60.8 °F 65% 30.05 in 10.0 mi SE 13.8 mph 19.6 mph N/A   Scattered Clouds
11:33 AM 73.4 °F 60.8 °F 65% 30.04 in 10.0 mi SE 13.8 mph 23.0 mph N/A   Scattered Clouds
11:54 AM 73.4 °F 60.8 °F 65% 30.03 in 10.0 mi SE 13.8 mph - N/A   Scattered Clouds
12:14 PM 73.4 °F 60.8 °F 65% 30.05 in 10.0 mi SSE 12.7 mph 18.4 mph N/A   Mostly Cloudy
12:34 PM 73.4 °F 60.8 °F 65% 30.03 in 10.0 mi SE 17.3 mph - N/A   Scattered Clouds
12:54 PM 75.2 °F 60.8 °F 61% 30.02 in 10.0 mi SE 17.3 mph 26.5 mph N/A   Clear
1:14 PM 77.0 °F 62.6 °F 61% 30.01 in 10.0 mi ESE 20.7 mph 25.3 mph N/A   Clear
1:34 PM 73.4 °F 60.8 °F 65% 30.01 in 10.0 mi SE 15.0 mph 24.2 mph N/A   Clear
1:54 PM 75.2 °F 60.8 °F 61% 30.01 in 10.0 mi SE 15.0 mph 19.6 mph N/A   Scattered Clouds
2:14 PM 73.4 °F 60.8 °F 65% 30.02 in 10.0 mi SSE 15.0 mph 18.4 mph N/A   Scattered Clouds
2:34 PM 73.4 °F 60.8 °F 65% 30.02 in 10.0 mi SSE 15.0 mph - N/A   Scattered Clouds
2:54 PM 73.4 °F 60.8 °F 65% 30.01 in 10.0 mi SSE 16.1 mph - N/A   Scattered Clouds
3:14 PM 75.2 °F 62.6 °F 65% 29.99 in 10.0 mi SE 16.1 mph 21.9 mph N/A   Scattered Clouds
3:34 PM 75.2 °F 60.8 °F 61% 29.97 in 10.0 mi SE 18.4 mph 25.3 mph N/A   Clear
3:53 PM 75.2 °F 60.8 °F 61% 29.95 in 10.0 mi SE 19.6 mph 26.5 mph N/A   Scattered Clouds
4:14 PM 75.2 °F 62.6 °F 65% 29.94 in 10.0 mi SE 17.3 mph 25.3 mph N/A   Clear
4:34 PM 77.0 °F 62.6 °F 61% 29.94 in 10.0 mi SE 13.8 mph 23.0 mph N/A   Clear
4:54 PM 78.8 °F 62.6 °F 57% 29.93 in 10.0 mi SSE 15.0 mph - N/A   Clear
5:14 PM 77.0 °F 62.6 °F 61% 29.94 in 10.0 mi SSE 13.8 mph 21.9 mph N/A   Clear
5:33 PM 77.0 °F 60.8 °F 57% 29.93 in 10.0 mi SE 19.6 mph 23.0 mph N/A   Scattered Clouds
5:54 PM 77.0 °F 62.6 °F 61% 29.93 in 10.0 mi SSE 16.1 mph - N/A   Mostly Cloudy
6:14 PM 75.2 °F 60.8 °F 61% 29.93 in 10.0 mi SSE 15.0 mph 20.7 mph N/A   Overcast
6:34 PM 75.2 °F 62.6 °F 65% 29.92 in 10.0 mi SSE 13.8 mph 23.0 mph N/A   Mostly Cloudy
6:54 PM 75.2 °F 60.8 °F 61% 29.91 in 10.0 mi SE 15.0 mph - N/A   Mostly Cloudy
7:13 PM 73.4 °F 60.8 °F 65% 29.91 in 10.0 mi SE 12.7 mph 20.7 mph N/A   Overcast
7:34 PM 73.4 °F 60.8 °F 65% 29.92 in 10.0 mi SSE 10.4 mph 18.4 mph N/A   Overcast
7:54 PM 73.4 °F 62.6 °F 69% 29.93 in 10.0 mi SSE 10.4 mph - N/A   Mostly Cloudy
8:14 PM 73.4 °F 60.8 °F 65% 29.93 in 10.0 mi SE 9.2 mph - N/A   Overcast
8:34 PM 73.4 °F 60.8 °F 65% 29.93 in 10.0 mi SE 12.7 mph - N/A   Overcast
8:54 PM 71.6 °F 60.8 °F 69% 29.93 in 10.0 mi SSE 11.5 mph 19.6 mph N/A   Overcast
9:14 PM 71.6 °F 60.8 °F 69% 29.93 in 10.0 mi SE 9.2 mph 17.3 mph N/A   Scattered Clouds
9:34 PM 71.6 °F 60.8 °F 69% 29.92 in 10.0 mi ESE 11.5 mph - N/A   Scattered Clouds
9:54 PM 69.8 °F 60.8 °F 73% 29.89 in 10.0 mi ESE 9.2 mph - N/A   Scattered Clouds
10:14 PM 69.8 °F 60.8 °F 73% 29.89 in 10.0 mi ESE 8.1 mph - N/A   Clear
10:34 PM 69.8 °F 60.8 °F 73% 29.88 in 10.0 mi SE 6.9 mph - N/A   Clear
10:54 PM 69.8 °F 60.8 °F 73% 29.91 in 10.0 mi SE 8.1 mph - N/A   Scattered Clouds
11:14 PM 69.8 °F 60.8 °F 73% 29.91 in 10.0 mi SSE 9.2 mph - N/A   Mostly Cloudy
11:34 PM 69.8 °F 60.8 °F 73% 29.89 in 7.0 mi SE 9.2 mph - 0.01 in Rain , Thunderstorm Rain
11:54 PM 66.2 °F 62.6 °F 88% 29.95 in 10.0 mi SSW 8.1 mph - 0.03 in Rain , Thunderstorm Light Thunderstorms and Rain